Cloud_Cover
100 100 100 100 100 25 100 85 100 100 78 83 55 78 64 13 49 49 6 5 5 5 8 87 9 52 12 0 26 100 33 5 7 4 4 26 4 1 3 2 9 6 46 98 100 91 100 100 100
100 100 100 100 100 100 100 100 100 100 100 97 26 24 56 13 95 100 20 5 5 5 38 56 8 5 5 5 5 6 5 4 4 0 3 3 0 0 0 0 9 2 1 48 20 2 6 74 38
100 100 100 100 100 100 100 100 100 100 100 76 77 7 56 19 93 93 9 5 54 1 45 35 5 5 5 5 5 5 5 5 2 0 0 4 0 4 15 19 17 0 1 0 0 0 1 0 0
100 100 100 30 13 100 100 100 100 100 100 27 5 5 6 25 98 93 6 10 52 21 36 30 5 5 5 5 5 5 11 5 4 0 0 0 0 5 28 16 0 0 0 0 0 0 0 0 0
100 100 92 73 5 100 100 100 100 100 99 40 8 5 17 99 58 76 5 40 14 80 55 51 5 17 39 35 85 99 100 99 27 5 0 0 0 11 35 8 0 0 0 0 0 0 0 0 0
100 96 98 57 5 82 100 100 100 100 100 37 5 5 84 100 99 76 57 37 12 26 98 78 34 5 7 23 79 85 100 100 100 78 1 0 0 11 8 5 5 5 2 0 2 0 0 0 2
100 99 58 61 100 99 100 100 100 100 100 100 5 5 9 100 100 83 98 65 33 47 51 64 37 17 5 5 60 21 100 100 100 100 5 5 21 8 0 0 1 4 5 33 16 0 0 4 6
100 100 100 94 79 100 100 100 100 100 100 100 42 6 5 89 100 100 100 100 99 65 56 49 31 52 51 46 3 39 29 99 81 6 5 23 28 1 0 0 2 2 5 96 100 93 97 81 36
67 100 100 100 100 99 100 100 100 100 98 37 72 41 59 85 81 100 100 100 100 100 92 63 49 99 82 79 53 21 12 22 68 37 38 92 56 35 49 37 5 5 100 100 100 100 100 100 100
4 60 100 100 100 100 100 100 100 100 100 17 17 77 58 5 92 74 100 100 100 100 100 99 81 100 100 100 88 79 80 98 98 99 68 78 80 96 100 55 4 49 100 100 100 100 72 37 93
0 6 44 100 100 100 100 100 100 100 71 7 5 100 98 6 5 13 100 100 100 100 100 100 100 100 100 100 100 100 100 100 100 93 68 100 100 100 100 100 80 100 100 94 40 7 10 32 94
0 0 8 85 84 100 100 100 100 100 99 93 1 88 99 45 67 60 88 100 100 100 100 100 100 100 100 100 100 100 100 100 100 82 100 91 100 100 100 100 100 100 93 5 5 5 12 39 100
0 0 0 4 100 100 100 100 100 100 100 100 36 65 81 85 38 14 12 96 93 100 100 100 100 100 100 100 100 97 100 100 100 100 99 100 100 100 100 100 100 100 39 5 5 5 15 51 100
0 0 0 0 18 89 75 100 100 96 100 100 96 5 93 100 100 53 30 98 100 91 100 100 100 100 100 100 100 100 100 100 100 100 100 100 100 100 100 100 100 76 27 17 1 6 16 37 38
0 0 0 0 0 30 100 96 100 100 100 96 91 8 5 93 100 100 70 83 100 84 100 100 100 100 100 100 86 100 100 100 100 100 100 100 100 100 100 100 96 51 28 2 0 10 7 13 17
1 0 5 0 1 0 30 20 100 100 100 100 99 9 71 5 18 100 100 100 51 89 100 100 100 100 100 100 100 100 100 100 100 100 100 100 100 100 100 100 99 52 25 5 5 6 9 10 5
5 38 1 0 79 64 24 4 100 100 100 100 100 97 58 70 89 100 96 99 91 33 100 94 100 100 100 85 100 98 100 100 100 100 100 100 100 100 100 100 90 42 31 5 5 0 1 3 18
79 89 91 63 10 86 93 24 17 100 100 100 100 100 98 100 94 56 100 80 100 91 85 73 100 100 100 100 100 100 100 100 100 100 100 100 100 100 100 100 70 38 66 5 5 1 0 5 40
86 99 97 35 33 100 13 57 5 84 100 100 100 100 74 93 100 100 74 88 100 100 69 96 100 100 100 100 100 100 100 100 100 100 100 100 100 100 100 100 97 24 47 16 30 5 0 64 63
38 49 87 93 100 33 100 17 100 100 100 100 100 100 100 100 100 100 100 99 87 100 54 61 98 98 100 100 100 92 100 99 100 100 100 100 100 100 90 98 100 74 32 41 5 5 48 95 41
56 62 90 91 80 50 66 100 100 100 100 100 100 100 100 100 100 100 100 100 99 97 84 89 40 73 100 100 100 100 100 100 100 100 100 100 100 100 100 100 100 100 69 92 19 5 5 66 62
50 26 69 98 100 100 100 100 100 100 100 100 100 100 100 100 100 100 100 100 98 100 100 100 90 27 100 100 100 100 100 100 99 100 100 100 100 100 100 100 100 100 64 100 85 48 23 40 9
90 98 79 100 96 100 100 37 100 83 100 100 100 96 100 100 100 100 100 100 100 100 100 100 100 100 45 100 100 100 100 100 100 100 100 100 100 100 100 100 100 100 100 99 77 54 36 13 29
65 92 100 100 100 100 96 64 22 92 99 95 100 100 96 100 100 100 100 100 100 100 100 100 100 100 100 100 100 100 100 100 100 100 100 100 100 100 100 100 100 100 100 100 69 55 100 98 88
5 7 33 100 100 100 100 66 90 72 63 83 89 99 100 100 100 100 100 100 100 100 100 100 100 100 100 100 100 100 100 100 100 100 100 100 100 100 100 100 100 100 100 100 100 96 100 92 86
83 58 45 4 76 83 18 92 77 92 8 6 99 6 67 100 100 100 100 100 100 100 100 100 100 100 100 100 100 94 98 100 100 100 100 100 100 100 100 100 100 100 100 100 100 100 97 85 85
4 73 90 86 88 76 76 63 98 19 22 100 69 6 5 6 63 83 98 100 100 100 100 100 100 100 100 100 100 100 99 100 100 100 100 100 100 100 100 99 100 100 100 100 100 100 100 100 100
0 4 40 37 61 20 98 50 98 27 29 5 93 95 15 24 60 40 54 85 100 100 100 100 100 100 100 100 100 100 100 100 100 100 100 100 100 100 100 100 100 100 100 100 100 100 100 87 77
2 4 23 55 71 95 72 5 5 100 56 52 5 27 5 5 16 65 82 78 100 100 100 100 100 100 100 100 100 100 100 100 100 100 100 100 100 100 100 100 100 100 100 100 100 100 100 100 61
5 7 7 27 4 65 99 20 5 5 8 28 5 5 5 5 5 5 30 100 100 100 100 100 100 100 100 100 100 100 100 100 100 100 100 100 100 100 100 100 100 100 100 100 100 100 100 100 100